Flag for Canada Weather past 2 weeks in Saguenay, Quebec, Canada

Now
53 °F

Cool.


Feels Like: 51 °F
Forecast: 38 / 51 °F
Wind: 8 mph from West

Location: Jonquiere Airport

Current Time: May 22, 2015 at 3:45:36 PM

Latest Report: May 22, 2015 at 3:00 PM


Visibility: N/A

Pressure: 29.88 "Hg

Humidity: 33%

Dew point: 24 °F

Location of SaguenayLocation

Historic Weather in Saguenay — Graph

°F

Saguenay temperature yesterday

Maximum temperature yesterday: 56 °F (at 4:00 PM)
Minimum temperature yesterday: 39 °F (at 11:00 PM)
Average temperature yesterday: 46 °F

Past Weeks' High & Low Weather Summary

 TemperatureHumidityPressure
High78 °F (May 19, 3:00 PM)98% (May 12, 6:00 AM)30.33 "Hg (May 12, 6:00 AM)
Low35 °F (May 22, 7:00 AM)18% (May 15, 4:00 PM)29.47 "Hg (May 19, 6:00 PM)
Average53 °F61%30.00 "Hg
* Reported May 7 2:00 PM — May 22 2:00 PM, Saguenay, Weather by CustomWeather, © 2015

Note: Actual official high and low records may vary slightly from our data, if they occured in-between our weather recording intervals... More about our weather records

Advertising

Saguenay weather history for previous 24 hours

 ConditionsComfort  
Time TempWeatherWind HumidityBarometerVisibility
2:00 PM
Fri, May 22
51 °FCool.6 mph33%29.88 "HgN/A
1:00 PM49 °FCool.5 mph40%29.89 "HgN/A
12:00 PM46 °FCool.9 mph46%29.90 "HgN/A
11:00 AM43 °FQuite cool.8 mph52%29.90 "HgN/A
10:00 AM41 °FQuite cool.9 mph74%29.90 "HgN/A
9:00 AM38 °FChilly.9 mph77%29.89 "HgN/A
8:00 AM36 °FChilly.10 mph83%29.89 "HgN/A
7:00 AM35 °FChilly.9 mph85%29.89 "HgN/A
6:00 AM35 °FChilly.8 mph87%29.87 "HgN/A
5:00 AM36 °FChilly.12 mph84%29.85 "HgN/A
4:00 AM37 °FChilly.7 mph89%29.85 "HgN/A
3:00 AM36 °FChilly.9 mph89%29.86 "HgN/A
2:00 AM37 °FChilly.8 mph90%29.86 "HgN/A
1:00 AM37 °FChilly.7 mph92%29.88 "HgN/A
12:00 AM38 °FChilly.10 mph91%29.89 "HgN/A
11:00 PM
Thu, May 21
39 °FChilly.9 mph91%29.88 "HgN/A
10:00 PM41 °FQuite cool.15 mph86%29.87 "HgN/A
9:00 PM44 °FQuite cool.9 mph79%29.85 "HgN/A
8:00 PM46 °FCool.12 mph69%29.83 "HgN/A
7:00 PM51 °FCool.14 mph48%29.80 "HgN/A
6:00 PM54 °FCool.13 mph33%29.78 "HgN/A
5:00 PM55 °FRefreshingly cool.10 mph33%29.77 "HgN/A
4:00 PM56 °FRefreshingly cool.10 mph36%29.76 "HgN/A
3:00 PM55 °FCool.9 mph36%29.78 "HgN/A
Weather by CustomWeather, © 2015

See weather overviewHow to use our weather pages